Location: Petrozavodsk
(61.7955°N, 34.3748°E)
Time: 22:54:03
(UTC+03:00)

Envisat - Pass Details

Date: 03 April 2023
Orbit: 763 x 765 km, 98.2° (Epoch: 31 May)

Event Time Altitude Azimuth Distance (km) Brightness Sun altitude
Rises 03:30:21 0° 20° (NNE) 3,249 7.5 -16.0°
Reaches altitude 10° 03:33:14 10° 37° (NE) 2,318 6.8 -15.8°
Maximum altitude 03:37:05 21° 86° (E) 1,676 5.4 -15.5°
Drops below altitude 10° 03:40:54 10° 135° (SE) 2,306 5.5 -15.1°
Sets 03:43:45 0° 151° (SSE) 3,227 6.1 -14.9°
